Retour au catalogue

STARLINK-37603

ActifCommunicationsVLEO
NORAD 69846·PAYLOAD·🇺🇸 United States

Lancé Jul 5, 2026 depuis Cape Canaveral Space Force Station

Loading…

Prochains Passages (prochaines 24 heures)

TLE

FraisSource: CelesTrak SupGP

Époque: Sep 15, 2026, 03:25 UTC

1 69846C 26154AD  26258.14284722  .00070358  00000+0  20789-2 0  2582
2 69846  53.1585 356.4337 0001138  90.3478 134.1956 15.34352952    16

Suivez STARLINK-37603 en temps réel avec AllMySat

Download on the App Store